« Back
NWS Peachtree City, Ga » Text Product » GA Regional Weather Roundup


Printer-friendly Version
Current Version              Previous Versions:   1  2  3  4  5  6  7  8  9  

Regional Weather Roundup

884
ASUS42 KFFC 301603
RWRGA
WEATHER ROUNDUP FOR GEORGIA
NATIONAL WEATHER SERVICE PEACHTREE CITY GA
1200 PM EDT SAT AUG 30 2014

NOTE: "FAIR" INDICATES FEW OR NO CLOUDS BELOW 12,000 FEET WITH NO
SIGNIFICANT WEATHER AND/OR OBSTRUCTIONS TO VISIBILITY.

* = USE WITH CAUTION. THE STATIONS MARKED WITH AN ASTERISK MAY NOT
REPORT WEATHER SUCH AS PRECIPITATION, FOG, OR THUNDER AND ARE NOT
QUALITY CONTROLLED BY NWS.

THE REMARK "TC" DENOTES TEMPERATURE READING IN DEGREES CELSIUS.

GAZ001>058-301700-
NORTH GEORGIA

CITY           SKY/WX    TMP DP  RH WIND       PRES   REMARKS
ATLANTA        PTSUNNY   84  72  67 VRB5      30.17S
ATHENS         SUNNY     89  69  51 VRB6      30.18F HX  93
CHAMBLEE       PTSUNNY   83  69  62 SE3       30.18R
PEACHTREE CITY MOSUNNY   86  72  62 VRB3      30.17S HX  92
ROME           CLOUDY    82  72  71 E5        30.15S
WEST ATLANTA   PTSUNNY   84  71  65 SE8       30.16F
GAINESVILLE    MOSUNNY   82  69  64 SE5       30.22S
CARTERSVILLE   CLOUDY    86  71  60 SE9       30.16S HX  91


CITY           SKY/WX    TMP DP  RH WIND       PRES   REMARKS
DALTON*        CLOUDY    82  70  65 SE9       30.15S
LAWRENCEVILLE* SUNNY     84  66  54 E6        30.18S
MARIETTA       CLOUDY    84  72  67 SE9       30.18S HX  90
KENNESAW*      PTSUNNY   84  70  61 SE7       30.19S
$$

GAZ059>098-102>109-301700-
CENTRAL GEORGIA

CITY           SKY/WX    TMP DP  RH WIND       PRES   REMARKS
AUGUSTA-BUSH   MOSUNNY   88  74  63 S7        30.17S HX  96
AUGUSTA-DANIEL MOSUNNY   88  73  61 VRB5      30.19S HX  95
COLUMBUS       MOSUNNY   87  72  60 S3        30.13F HX  93
MACON          MOSUNNY   86  73  65 E7        30.15S HX  93
ROBINS AFB     MOSUNNY   88  76  66 SE6       30.15S HX  99


CITY           SKY/WX    TMP DP  RH WIND       PRES   REMARKS
LAGRANGE*      MOSUNNY   91  76  61 S3        30.15F HX 102
SYLVANIA*      CLOUDY    85  70  59 CALM      30.18F
MILLEDGEVILLE* CLOUDY    88  77  70 E3        30.16S HX 100
$$

GAZ099>101-110>166-301700-
SOUTH GEORGIA

CITY           SKY/WX    TMP DP  RH WIND       PRES   REMARKS
SAVANNAH       MOSUNNY   91  72  53 E13G18    30.17F HX  98
VALDOSTA       PTSUNNY   88  74  63 SE7       30.15F HX  96
ALMA           PTSUNNY   88  75  65 SE7       30.16F HX  97
ST SIMONS      MOSUNNY   86  75  69 E7        30.16F HX  95
FT STEWART     MOSUNNY   91  72  54 E9        30.15F HX  98
ALBANY         PTSUNNY   86  73  65 CALM      30.16F HX  93
HUNTER AFB     PTSUNNY   87  76  70 E12       30.15F HX  97
BRUNSWICK      CLOUDY    88  73  62 S5        30.16F HX  96


CITY           SKY/WX    TMP DP  RH WIND       PRES   REMARKS
BAINBRIDGE*    PTSUNNY   91  79  66 N3        30.14F HX 107
MOULTRIE*      MOSUNNY   88  72  58 SW6       30.16S HX  94
VIDALIA*         N/A     90  73  58 E9        30.16F HX  98
WAYCROSS*      PTSUNNY   91  77  64 E6        30.15F HX 104
DOUGLAS*       PTSUNNY   88  72  58 CALM      30.17F HX  94
$$



USA.gov is the U.S. government's official web portal to all federal, state and local government web resources and services.